Temp
23 23 22 22 23 23 23 23 23 23 23 23 23 23 23 23 23 23 23 23 23 23 23 23 23 23 23 23 23 23 24 24 24 24 24 24 24 24 24 24 24 24
23 22 22 22 22 22 23 23 23 23 23 23 23 23 23 23 23 23 23 23 23 23 23 23 23 23 23 23 23 23 24 24 24 24 24 24 24 24 24 24 25 25
22 22 22 22 22 22 23 23 23 23 23 23 23 23 23 23 23 23 22 22 22 22 22 22 22 23 23 23 23 23 23 23 24 24 24 24 24 24 24 24 25 25
22 22 22 22 22 22 22 22 22 23 23 23 23 23 23 23 22 22 22 22 22 22 22 22 22 22 22 23 23 23 23 23 24 24 24 24 24 24 24 24 24 25
23 22 22 21 21 20 20 21 22 22 22 22 23 22 22 22 22 22 22 22 22 22 22 22 22 22 22 22 22 23 23 23 23 24 24 24 24 24 24 24 24 25
22 22 22 21 20 20 20 20 22 22 22 22 22 22 22 22 22 22 22 22 22 22 22 23 22 22 22 22 22 22 23 23 23 23 24 24 24 24 24 24 24 24
22 22 21 21 21 20 20 20 21 22 22 22 22 22 22 22 22 22 22 22 22 22 22 23 23 23 22 22 22 22 23 23 23 23 23 23 24 24 24 24 24 24
21 21 21 21 20 20 20 21 22 22 22 22 21 22 22 22 22 22 22 22 22 22 22 22 23 23 23 23 22 23 23 23 23 23 23 23 23 24 24 24 24 24
19 20 21 20 20 19 20 21 21 21 22 21 21 22 22 22 22 22 22 22 22 22 22 22 22 23 23 23 23 23 23 23 23 23 23 23 24 24 24 24 24 24
19 20 20 20 20 20 21 21 21 21 21 21 21 22 22 22 22 22 22 22 22 22 22 22 22 22 22 23 23 23 23 23 23 23 23 24 24 24 24 24 24 24
19 20 20 20 20 21 20 20 21 21 21 21 21 21 21 21 21 22 22 22 22 22 22 22 23 23 23 23 23 23 23 23 23 24 24 24 24 24 24 24 24 24
20 20 20 20 21 21 20 20 21 21 21 21 21 21 21 21 21 22 22 22 22 22 22 22 23 23 23 23 23 23 23 23 23 23 23 24 24 24 24 24 24 24
20 21 21 21 21 20 20 20 21 21 21 21 21 21 21 21 21 22 22 22 22 22 22 22 22 22 23 23 23 23 23 23 23 23 23 23 24 24 24 24 24 24
21 21 21 21 21 20 20 21 21 21 21 21 21 21 21 21 21 21 22 22 22 22 22 22 22 22 23 23 22 22 22 22 23 23 23 23 23 24 24 24 24 24
21 21 21 20 20 20 20 21 21 21 21 21 21 21 21 21 21 21 21 21 22 22 22 22 22 22 22 22 22 22 22 22 22 22 23 23 23 23 23 24 24 24
20 21 21 20 20 20 21 21 21 21 21 21 21 21 21 21 21 21 21 21 22 22 22 22 22 22 22 22 22 22 22 22 22 22 23 23 23 23 23 23 24 24
21 21 21 20 20 21 21 21 21 21 21 21 21 21 21 21 21 21 21 21 21 21 22 22 22 22 22 22 22 22 22 22 22 22 22 22 22 23 23 23 23 24
21 21 21 21 21 21 21 21 21 21 21 21 21 21 21 21 21 21 21 21 21 21 21 21 21 21 22 22 22 22 22 22 22 22 22 22 22 22 22 23 23 23
21 21 21 21 21 21 21 21 21 21 21 21 21 21 21 21 20 20 21 21 21 21 21 21 21 21 21 21 21 22 22 22 21 21 21 21 22 22 22 22 22 23
21 21 21 21 21 21 21 21 21 21 21 21 20 20 20 20 20 20 20 20 20 20 20 21 21 21 21 21 21 21 21 21 21 21 21 21 21 21 22 22 22 22
21 21 21 20 20 20 20 20 20 20 20 20 20 20 19 19 19 19 20 20 20 20 20 20 20 20 20 20 21 21 20 20 20 20 21 21 21 21 21 21 21 22
20 20 20 20 20 20 20 20 20 20 19 19 19 19 19 19 19 19 19 19 19 19 19 19 19 19 19 20 20 20 20 20 20 20 20 20 20 20 21 21 21 21
21 20 20 20 20 20 20 19 19 19 19 19 18 18 18 18 18 18 18 18 18 18 18 18 18 18 18 18 19 19 19 19 19 19 20 20 20 20 20 21 21 20
21 21 20 20 20 19 19 19 19 18 18 18 18 18 18 18 18 18 18 18 18 18 18 18 18 18 17 17 18 18 19 19 19 19 19 20 20 20 20 20 20 20
20 20 20 20 19 19 19 19 18 18 18 18 18 18 18 18 18 17 17 17 17 17 17 17 17 17 17 17 18 18 18 18 18 19 19 19 19 20 20 20 20 20
20 20 19 19 19 19 18 18 18 18 18 18 17 17 17 17 17 17 17 17 17 17 17 17 17 17 17 17 17 18 18 18 18 18 19 19 19 19 19 20 20 20
Height
806 807 809 811 812 812 813 814 816 818 819 821 822 823 824 825 826 827 828 828 829 829 830 830 830 831 831 832 833 833 834 835 836 837 837 837 838 838 839 839 840 840
804 806 808 809 810 810 811 812 813 815 817 819 820 821 822 823 824 825 826 827 827 828 828 829 829 829 830 830 831 831 832 833 834 835 835 835 836 837 837 838 838 839
802 803 804 805 806 807 808 809 811 812 814 816 818 819 820 821 822 823 824 825 825 825 826 826 827 827 827 828 828 829 830 831 832 833 833 833 834 835 835 836 836 837
799 800 800 802 803 804 806 807 809 810 812 814 815 817 818 819 820 821 821 822 822 823 823 824 824 825 825 826 826 827 827 828 830 830 831 831 832 833 833 834 835 835
796 797 798 800 802 804 805 806 807 808 810 812 813 815 816 817 818 818 819 820 820 820 821 821 822 822 823 824 824 825 825 826 827 828 829 829 830 831 831 832 832 833
793 794 795 798 800 803 805 805 806 806 808 810 811 813 814 815 816 817 817 818 818 818 818 818 819 819 820 821 822 822 823 824 825 826 826 827 827 828 829 829 830 830
791 792 793 796 797 799 801 802 804 805 806 808 810 811 813 814 814 815 815 816 816 816 816 816 817 817 817 818 819 820 821 822 823 824 824 824 825 825 826 827 827 828
792 792 792 794 795 797 799 800 801 803 805 806 808 810 811 812 813 813 814 815 815 815 815 815 815 815 816 816 816 817 818 819 820 821 822 822 822 823 823 824 825 825
794 793 792 792 794 795 797 798 800 802 803 805 807 808 810 811 811 812 813 813 813 813 814 814 814 814 815 814 815 815 816 817 818 819 819 820 820 820 821 822 822 823
794 794 792 791 792 794 796 798 799 801 803 804 805 807 808 809 810 811 811 812 812 812 812 812 813 813 813 813 813 813 813 814 815 816 816 817 817 818 819 819 820 820
793 793 791 790 792 793 795 797 798 800 802 803 804 805 806 808 808 809 810 810 810 810 810 810 811 811 812 812 812 812 812 812 813 813 814 814 815 815 816 816 817 817
790 790 789 790 791 792 794 796 797 799 800 801 803 804 805 806 807 807 808 808 808 809 809 809 809 809 809 810 810 810 810 810 810 811 811 812 813 813 813 813 814 814
786 787 788 789 790 792 793 795 796 798 799 800 801 802 803 804 804 805 806 806 806 807 807 807 807 807 807 808 809 809 809 809 808 809 809 810 810 811 811 811 811 811
785 786 787 788 790 791 793 794 795 797 798 799 800 800 801 802 802 803 803 804 804 804 805 805 805 805 806 806 807 808 808 807 807 807 807 807 808 808 809 809 808 809
785 786 787 788 789 790 792 793 794 795 796 797 798 799 800 800 801 801 802 802 802 803 803 803 803 804 804 804 805 806 806 806 805 805 805 805 805 806 806 807 806 806
786 787 788 789 790 791 792 793 794 795 795 796 797 798 798 799 799 800 800 801 801 801 801 802 802 802 802 802 803 803 803 803 803 803 803 803 803 804 804 804 805 805
786 787 788 789 790 792 793 793 794 795 795 796 797 797 798 798 798 798 799 799 799 799 800 800 800 800 800 801 801 801 801 801 801 801 801 801 801 801 802 802 803 803
786 787 788 790 791 792 793 794 794 795 795 796 796 797 797 797 798 798 798 798 798 798 799 799 799 799 799 799 799 799 799 799 799 799 799 799 799 799 800 800 800 801
786 787 788 790 791 792 793 793 794 794 795 796 796 796 797 797 797 797 797 798 798 798 798 798 798 798 798 798 798 797 798 797 797 797 797 797 797 797 797 798 798 798
786 787 788 790 791 792 793 793 794 794 794 795 795 796 796 796 797 797 797 797 797 797 797 797 797 797 797 797 796 796 796 796 796 795 795 795 795 795 795 795 795 796
786 787 789 790 791 792 793 793 793 794 794 794 794 795 795 795 795 796 796 796 796 796 796 796 796 796 796 795 795 794 794 794 794 794 794 793 793 793 793 793 793 793
786 787 789 790 791 791 792 793 793 793 794 794 794 794 794 794 794 795 795 795 795 795 795 795 795 794 794 793 793 793 793 793 793 793 792 792 791 791 791 792 792 791
785 787 788 789 790 791 791 792 792 793 793 793 793 793 793 793 794 794 794 794 794 794 794 794 793 793 792 792 792 792 792 792 792 792 791 790 790 789 789 790 790 790
784 786 787 788 789 790 790 791 791 792 792 792 793 793 793 793 793 793 793 793 792 792 792 792 792 791 791 791 791 791 791 791 791 790 790 789 789 788 788 788 788 788
784 785 786 788 788 789 790 790 790 791 791 791 792 792 792 792 792 792 792 791 791 791 790 790 790 790 790 790 790 790 790 790 790 789 788 788 787 787 787 787 787 787
783 785 786 787 788 789 789 790 790 790 790 790 791 791 791 791 791 791 791 791 791 790 790 790 789 789 789 789 789 788 788 788 788 787 787 787 786 786 786 785 786 785
Wind_Speed
30 29 27 27 26 26 25 23 22 21 20 20 20 19 19 19 18 18 19 19 19 20 21 21 21 20 20 20 19 18 17 17 17 17 17 17 17 16 17 17 16 15
29 28 27 27 26 26 25 23 22 21 20 20 20 19 19 18 18 18 18 18 18 19 20 20 20 20 20 21 20 20 19 18 18 18 18 18 17 16 16 16 16 15
28 28 29 29 27 26 25 23 21 20 19 20 20 19 18 17 17 17 17 17 17 18 18 18 18 18 19 20 20 20 19 19 19 18 18 19 18 17 16 15 15 15
28 28 28 28 28 26 24 21 20 20 19 20 20 19 17 16 16 17 17 18 17 16 16 15 16 16 17 18 19 19 19 19 19 18 18 19 18 18 17 15 15 14
29 28 27 26 25 23 21 20 19 19 19 19 19 18 17 17 17 18 18 18 17 16 15 15 15 16 16 17 17 18 19 19 19 19 19 19 19 18 18 16 15 14
26 27 25 24 22 19 19 20 19 18 18 18 18 18 18 17 17 17 16 16 16 16 15 15 15 15 16 16 17 17 18 18 19 20 20 21 21 20 20 18 17 15
23 24 23 21 20 19 18 19 18 17 17 17 17 18 17 16 15 14 14 15 15 16 15 14 14 14 14 15 16 17 17 17 17 19 20 21 21 21 21 20 18 16
21 22 20 18 18 17 17 18 17 16 16 16 16 16 16 15 14 13 13 14 15 15 15 15 14 14 13 13 14 15 16 17 17 18 19 19 19 19 20 20 18 18
18 19 18 16 16 15 16 17 16 16 16 16 16 16 16 16 15 15 14 14 14 14 14 15 15 15 14 14 14 14 15 16 17 18 18 18 18 18 18 18 19 19
16 18 16 14 14 14 14 15 15 16 15 15 15 16 16 17 17 17 16 15 15 15 15 15 15 16 16 16 15 15 15 16 16 17 17 17 17 17 17 18 19 20
16 16 13 12 13 13 13 13 13 14 14 14 15 15 16 17 17 17 16 16 17 17 17 16 16 16 17 17 16 15 15 16 16 16 16 17 17 17 17 18 19 20
13 12 10 10 11 10 10 11 12 12 13 13 14 15 16 16 16 16 17 17 19 19 18 16 16 16 17 18 17 16 15 15 16 17 17 17 18 18 17 17 18 19
11 10 10 9 9 9 9 9 9 10 10 11 12 13 14 15 15 15 16 16 17 17 16 15 14 14 15 17 17 15 15 16 16 17 18 18 19 19 18 17 17 18
11 10 9 8 8 7 7 7 8 8 9 9 11 12 12 13 13 14 14 14 14 14 14 13 13 13 13 14 15 15 16 17 17 18 18 18 19 19 19 18 18 18
9 8 7 6 7 7 7 7 7 7 7 8 9 9 9 9 9 11 12 12 12 12 12 12 12 12 11 11 12 13 14 16 16 16 17 18 19 20 20 20 19 19
7 7 7 7 7 7 7 7 6 6 5 5 5 6 7 7 7 8 9 11 11 11 11 11 12 12 11 10 10 11 12 13 14 14 15 16 17 19 20 21 21 21
8 8 8 8 8 8 7 7 6 4 3 2 2 3 4 5 5 6 8 9 10 10 11 11 11 12 12 11 11 10 10 12 13 12 12 12 14 16 17 19 20 21
9 10 10 10 10 8 7 6 5 3 3 2 2 2 3 4 4 5 5 6 7 8 8 9 10 12 13 12 12 11 10 11 11 10 10 11 13 15 16 18 19 19
11 12 12 12 10 9 7 6 5 5 5 5 5 5 6 6 6 6 6 6 5 5 5 6 8 9 10 11 11 11 11 10 10 10 11 11 13 15 16 18 19 20
14 14 14 13 11 10 8 7 6 6 6 6 7 8 8 8 8 8 7 7 7 6 6 6 7 7 7 8 9 10 10 11 11 12 12 12 13 13 14 16 17 19
17 16 15 14 11 10 8 7 7 7 7 7 7 7 7 7 7 7 7 7 7 8 7 7 7 7 7 7 8 8 9 10 11 12 13 14 15 15 15 15 15 16
18 16 14 12 10 9 8 8 7 7 7 7 7 6 5 5 5 5 5 5 6 6 6 7 7 7 8 8 8 8 9 9 10 11 12 13 14 16 17 18 16 15
16 15 13 11 10 9 8 8 8 8 8 7 7 6 5 4 4 4 4 3 3 4 5 5 4 5 7 8 7 6 6 7 8 9 10 11 13 14 15 16 17 16
15 14 12 11 10 9 8 8 8 8 8 7 6 6 5 5 5 4 3 3 2 4 4 4 3 4 6 6 6 6 8 9 11 11 12 12 12 13 13 13 14 14
15 13 11 10 9 9 8 8 8 8 7 6 6 6 5 6 6 5 4 3 3 4 4 3 3 4 6 7 7 9 11 12 13 13 13 13 13 13 13 13 14 13
14 12 11 9 8 8 8 7 7 7 6 6 5 5 5 5 5 4 4 3 4 4 5 5 7 9 10 11 12 12 12 12 13 14 16 17 16 15 13 12 14 14
Wind_Direction
226 226 227 230 233 234 234 234 237 240 243 244 243 245 247 249 252 252 252 254 256 258 260 260 262 262 263 262 261 261 262 263 261 260 262 268 275 280 277 276 285 297
225 225 226 231 234 235 234 235 237 239 242 245 247 251 253 255 257 257 256 256 258 261 262 262 262 261 261 261 259 257 258 260 261 259 259 264 272 279 278 275 281 289
225 226 228 231 233 234 234 233 235 237 242 247 251 255 257 258 260 261 261 261 262 264 264 262 261 261 260 259 257 256 255 255 258 258 257 260 268 275 278 278 279 283
228 229 231 233 235 234 232 230 232 236 240 246 252 256 258 260 262 265 265 265 265 264 264 263 262 263 263 260 257 254 253 253 255 257 255 257 262 269 276 280 281 282
233 233 233 232 233 232 232 233 235 238 242 247 252 256 258 261 264 266 266 265 263 262 262 263 264 265 265 263 258 252 250 251 253 256 256 256 260 266 273 278 281 281
237 238 236 234 234 233 234 236 237 240 245 249 254 257 260 264 265 264 264 263 262 260 258 258 261 262 262 261 256 250 248 250 254 256 258 258 260 264 268 273 276 277
238 241 238 236 240 239 233 234 239 243 248 253 256 258 259 261 260 259 262 265 264 262 259 257 256 255 257 258 254 248 245 249 254 257 259 260 261 263 264 266 270 272
243 245 240 236 240 240 235 237 242 246 251 255 256 257 257 257 258 262 266 268 268 266 262 260 259 255 253 252 251 247 244 247 252 256 259 259 259 259 258 260 264 267
245 248 246 241 240 240 239 242 247 250 253 255 255 257 257 256 258 263 267 268 266 267 266 266 265 261 257 253 250 249 248 250 252 255 258 259 258 257 256 257 260 262
242 245 247 246 247 248 248 250 254 255 255 255 255 256 256 257 259 262 265 265 263 266 269 269 267 265 262 260 256 252 249 250 252 255 257 258 258 259 259 259 259 259
235 237 240 247 254 257 256 255 256 256 257 258 258 257 257 258 259 259 260 261 263 267 269 269 268 266 263 263 261 257 252 250 251 253 256 257 258 259 260 260 260 259
226 228 231 242 249 253 253 255 256 256 257 257 257 256 256 255 255 255 259 263 266 266 266 267 268 266 262 262 263 261 257 255 255 254 255 257 258 260 260 258 259 259
225 226 228 233 238 244 248 250 252 252 253 254 253 253 252 251 252 255 260 265 267 264 262 263 266 264 262 262 264 266 265 261 259 258 258 258 260 262 262 260 259 261
225 223 223 224 228 231 236 237 238 240 242 245 246 247 249 251 254 256 259 261 261 258 258 261 263 262 260 258 260 268 271 269 265 262 261 261 263 264 263 261 261 262
214 210 208 206 206 207 210 214 216 218 221 230 239 242 244 245 248 249 249 249 248 249 254 260 262 261 258 256 259 266 272 275 275 271 266 265 266 265 264 262 262 263
191 191 189 188 189 190 188 185 183 189 199 213 228 235 234 233 233 235 238 242 244 245 250 255 259 260 256 254 261 269 274 277 278 277 273 269 268 268 267 265 264 264
180 182 184 184 182 176 169 165 165 173 186 204 223 229 233 233 235 238 242 249 252 252 254 255 256 258 255 251 257 267 272 272 272 273 272 269 268 269 271 271 269 268
181 184 186 183 175 168 166 170 176 190 208 238 254 246 237 238 242 245 246 252 258 260 260 255 251 253 254 254 258 263 265 262 262 264 265 264 265 267 269 271 271 270
187 189 188 182 178 181 189 199 214 233 246 256 262 258 252 248 246 242 242 249 258 263 260 253 252 255 257 258 258 258 257 255 254 256 259 263 265 267 269 269 269 269
190 189 185 184 187 195 203 212 224 237 246 255 261 264 262 259 256 253 251 252 255 259 260 257 259 264 267 268 265 262 259 258 259 260 261 262 265 270 272 273 273 272
185 184 184 187 193 200 209 220 230 237 245 251 257 262 263 264 268 269 269 269 269 269 268 266 266 270 273 275 276 275 272 274 277 279 277 274 272 272 272 272 275 276
182 183 186 191 198 206 215 224 232 236 240 242 247 252 257 265 275 280 283 284 284 283 282 284 285 286 286 286 287 287 286 288 292 294 293 291 287 282 278 273 271 274
185 189 194 199 207 216 222 227 229 229 230 232 238 245 255 269 275 278 281 278 281 297 307 313 314 310 304 299 296 295 298 300 302 303 304 304 302 298 292 284 276 275
193 197 202 205 211 218 225 229 231 232 234 235 238 245 262 278 276 270 269 272 285 306 314 316 316 313 309 305 303 306 311 311 309 308 306 303 302 301 299 297 290 283
193 197 201 205 212 219 226 233 235 237 239 241 243 251 267 279 279 276 279 284 290 292 289 287 297 306 308 309 307 303 301 300 300 301 303 303 303 299 294 292 292 287
190 195 201 208 215 222 227 234 238 239 239 241 247 256 267 278 284 289 294 302 307 297 287 288 295 300 303 303 301 296 292 292 293 293 295 296 297 297 292 285 282 280